OK,87,57,827,87,2014-10-01T01:40:00,0,28072597,190934
OK,87,57,827,87,2014-10-01T01:45:00,0,28073044,190934
OK,87,57,827,87,2014-10-01T01:50:00,0,28073493,190934
OK,87,57,827,87,2014-10-01T01:55:00,0,28073811,190934
OK,87,57,827,87,2014-10-01T02:00:00,0,28074259,190934
OK,87,57,827,87,2014-10-01T02:05:00,0,28074702,190934
OK,87,57,827,87,2014-10-01T02:10:00,0,28075148,190934
OK,99,50,827,99,2014-10-01T02:20:00,0,28075597,190934
OK,99,50,827,99,2014-10-01T02:25:00,0,28076429,190934
OK,99,50,827,99,2014-10-01T02:30:00,0,28076878,190934
OK,99,50,827,99,2014-10-01T02:35:00,0,28077327,190934
OK,99,50,827,99,2014-10-01T02:40:00,0,28077733,190934
OK,99,50,827,99,2014-10-01T02:45:00,0,28078179,190934
OK,99,50,827,99,2014-10-01T02:50:00,0,28078624,190934
OK,99,50,827,99,2014-10-01T02:55:00,0,28079073,190934
OK,93,53,827,93,2014-10-01T03:00:00,1,28079515,190934
OK,88,56,827,88,2014-10-01T03:05:00,1,28079964,190934
OK,88,56,827,88,2014-10-01T03:10:00,0,28080302,190934
OK,88,56,827,88,2014-10-01T03:15:00,0,28080747,190934
OK,88,56,827,88,2014-10-01T03:20:00,0,28081196,190934
OK,88,56,827,88,2014-10-01T03:25:00,0,28081643,190934
OK,88,56,827,88,2014-10-01T03:30:00,0,28082092,190934
OK,77,64,827,77,2014-10-01T03:35:00,1,28082530,190934
OK,77,64,827,77,2014-10-01T03:40:00,1,28082958,190934
OK,77,64,827,77,2014-10-01T03:45:00,0,28083406,190934
OK,77,64,827,77,2014-10-01T03:50:00,0,28083855,190934
OK,97,51,827,97,2014-10-01T03:55:00,1,28084301,190934
OK,89,55,827,89,2014-10-01T04:00:00,2,28084727,190934
OK,82,60,827,82,2014-10-01T04:05:00,1,28085170,190934
OK,80,62,827,80,2014-10-01T04:10:00,2,28085616,190934
OK,85,58,827,85,2014-10-01T04:15:00,2,28086064,190934
OK,84,59,827,84,2014-10-01T04:20:00,3,28086507,190934
OK,93,53,827,93,2014-10-01T04:25:00,3,28086955,190934
OK,93,53,827,93,2014-10-01T04:30:00,1,28087400,190934
OK,93,53,827,93,2014-10-01T04:35:00,0,28087849,190934
OK,89,55,827,89,2014-10-01T04:40:00,2,28088277,190934
OK,91,54,827,91,2014-10-01T04:45:00,3,28088722,190934
OK,102,48,827,102,2014-10-01T04:50:00,4,28089154,190934
OK,114,43,827,114,2014-10-01T04:55:00,6,28089601,190934
OK,90,55,827,90,2014-10-01T05:05:00,5,28090050,190934
OK,92,54,827,92,2014-10-01T05:10:00,8,28090843,190934
OK,93,53,827,93,2014-10-01T05:15:00,4,28091292,190934
OK,109,45,827,109,2014-10-01T05:20:00,2,28091712,190934
OK,110,45,827,110,2014-10-01T05:25:00,5,28092158,190934
OK,123,40,827,123,2014-10-01T05:30:00,2,28092603,190934
OK,120,41,827,120,2014-10-01T05:35:00,2,28093044,190934
OK,106,46,827,106,2014-10-01T05:40:00,6,28093474,190934
OK,102,48,827,102,2014-10-01T05:45:00,13,28093923,190934
OK,102,48,827,102,2014-10-01T05:50:00,12,28094338,190934
OK,109,45,827,109,2014-10-01T05:55:00,6,28094779,190934
OK,100,49,827,100,2014-10-01T06:00:00,6,28095226,190934
OK,95,52,827,95,2014-10-01T06:05:00,7,28095675,190934
OK,89,55,827,89,2014-10-01T06:10:00,7,28096091,190934
OK,94,52,827,94,2014-10-01T06:15:00,7,28096537,190934
OK,98,50,827,98,2014-10-01T06:20:00,6,28096974,190934
OK,98,50,827,98,2014-10-01T06:25:00,4,28097420,190934
OK,99,50,827,99,2014-10-01T06:30:00,6,28097869,190934
OK,95,52,827,95,2014-10-01T06:35:00,5,28098309,190934
OK,97,51,827,97,2014-10-01T06:40:00,3,28098751,190934
OK,107,46,827,107,2014-10-01T06:45:00,5,28099198,190934
OK,100,49,827,100,2014-10-01T06:50:00,6,28099545,190934
OK,101,49,827,101,2014-10-01T06:55:00,11,28099990,190934
OK,102,48,827,102,2014-10-01T07:00:00,10,28100301,190934
OK,104,47,827,104,2014-10-01T07:05:00,3,28100746,190934
OK,102,48,827,102,2014-10-01T07:10:00,1,28101120,190934
OK,95,52,827,95,2014-10-01T07:15:00,7,28101566,190934
OK,96,51,827,96,2014-10-01T07:20:00,4,28102003,190934
OK,96,51,827,96,2014-10-01T07:25:00,2,28102451,190934
OK,88,56,827,88,2014-10-01T07:30:00,3,28102888,190934
OK,87,57,827,87,2014-10-01T07:35:00,2,28103325,190934
OK,103,48,827,103,2014-10-01T07:40:00,1,28103771,190934
OK,103,48,827,103,2014-10-01T07:45:00,3,28104215,190934
OK,111,44,827,111,2014-10-01T07:50:00,6,28104657,190934
OK,100,49,827,100,2014-10-01T07:55:00,3,28105101,190934
OK,99,50,827,99,2014-10-01T08:00:00,2,28105543,190934
OK,79,63,827,79,2014-10-01T08:05:00,1,28105990,190934
OK,90,55,827,90,2014-10-01T08:10:00,2,28106428,190934
OK,99,50,827,99,2014-10-01T08:15:00,4,28106836,190934
OK,99,50,827,99,2014-10-01T08:20:00,4,28107265,190934
OK,104,47,827,104,2014-10-01T08:25:00,4,28107714,190934
OK,105,47,827,105,2014-10-01T08:30:00,5,28108153,190934
OK,105,47,827,105,2014-10-01T08:35:00,2,28108602,190934
OK,93,53,827,93,2014-10-01T08:40:00,6,28109032,190934
OK,99,50,827,99,2014-10-01T08:45:00,6,28109479,190934
OK,104,47,827,104,2014-10-01T08:50:00,5,28109825,190934
OK,97,51,827,97,2014-10-01T08:55:00,5,28110271,190934
OK,103,48,827,103,2014-10-01T09:00:00,8,28110696,190934
OK,102,48,827,102,2014-10-01T09:05:00,10,28111143,190934
OK,102,48,827,102,2014-10-01T09:10:00,13,28111573,190934
OK,107,46,827,107,2014-10-01T09:15:00,9,28112021,190934
OK,114,43,827,114,2014-10-01T09:20:00,9,28112364,190934
OK,129,38,827,129,2014-10-01T09:25:00,4,28112811,190934
OK,121,41,827,121,2014-10-01T09:30:00,3,28113237,190934
OK,114,43,827,114,2014-10-01T09:35:00,4,28113684,190934
OK,105,47,827,105,2014-10-01T09:40:00,3,28114117,190934
OK,88,56,827,88,2014-10-01T09:45:00,2,28114565,190934
OK,96,51,827,96,2014-10-01T09:50:00,5,28114921,190934
OK,103,48,827,103,2014-10-01T09:55:00,6,28115368,190934
OK,104,47,827,104,2014-10-01T10:00:00,8,28115782,190934
OK,100,49,827,100,2014-10-01T10:05:00,8,28116229,190934
OK,105,47,827,105,2014-10-01T10:10:00,5,28116639,190934
OK,97,51,827,97,2014-10-01T10:15:00,16,28117086,190934
OK,100,49,827,100,2014-10-01T10:20:00,13,28117512,190934
OK,98,50,827,98,2014-10-01T10:25:00,6,28117960,190934
OK,96,51,827,96,2014-10-01T10:30:00,4,28118405,190934
OK,94,52,827,94,2014-10-01T10:35:00,3,28118852,190934
OK,101,49,827,101,2014-10-01T10:40:00,6,28119296,190934
OK,96,51,827,96,2014-10-01T10:45:00,4,28119744,190934
OK,98,50,827,98,2014-10-01T10:50:00,3,28120192,190934
OK,99,50,827,99,2014-10-01T10:55:00,5,28120641,190934
OK,97,51,827,97,2014-10-01T11:00:00,4,28121026,190934
OK,102,48,827,102,2014-10-01T11:05:00,2,28121473,190934
OK,98,50,827,98,2014-10-01T11:10:00,8,28121912,190934
OK,98,50,827,98,2014-10-01T11:15:00,6,28122360,190934
OK,106,46,827,106,2014-10-01T11:20:00,5,28122802,190934
OK,110,45,827,110,2014-10-01T11:25:00,4,28123250,190934
OK,90,55,827,90,2014-10-01T11:30:00,3,28123684,190934
OK,101,49,827,101,2014-10-01T11:35:00,5,28124131,190934
OK,105,47,827,105,2014-10-01T11:40:00,6,28124537,190934
OK,103,48,827,103,2014-10-01T11:45:00,6,28124982,190934
OK,96,51,827,96,2014-10-01T11:50:00,7,28125411,190934
OK,91,54,827,91,2014-10-01T11:55:00,7,28125860,190934
OK,93,53,827,93,2014-10-01T12:00:00,6,28126214,190934
OK,100,49,827,100,2014-10-01T12:05:00,7,28126661,190934
OK,101,49,827,101,2014-10-01T12:10:00,8,28127110,190934
OK,92,54,827,92,2014-10-01T12:15:00,5,28127559,190934
OK,119,41,827,119,2014-10-01T12:20:00,1,28127989,190934
OK,105,47,827,105,2014-10-01T12:25:00,9,28128436,190934
OK,104,47,827,104,2014-10-01T12:30:00,9,28128872,190934
OK,99,50,827,99,2014-10-01T12:35:00,7,28129320,190934
OK,90,55,827,90,2014-10-01T12:40:00,8,28129755,190934
OK,86,57,827,86,2014-10-01T12:45:00,7,28130203,190934
OK,109,45,827,109,2014-10-01T12:50:00,11,28130633,190934
OK,95,52,827,95,2014-10-01T12:55:00,9,28131080,190934
OK,91,54,827,91,2014-10-01T13:00:00,5,28131519,190934
OK,108,46,827,108,2014-10-01T13:05:00,7,28131966,190934
OK,108,46,827,108,2014-10-01T13:10:00,9,28132405,190934
OK,111,44,827,111,2014-10-01T13:15:00,5,28132851,190934
OK,203,24,827,203,2014-10-01T13:20:00,8,28133289,190934
OK,191,26,827,191,2014-10-01T13:25:00,12,28133738,190934
OK,183,27,827,183,2014-10-01T13:30:00,9,28134177,190934
OK,133,37,827,133,2014-10-01T13:35:00,18,28134626,190934
OK,130,38,827,130,2014-10-01T13:40:00,15,28135046,190934
OK,125,39,827,125,2014-10-01T13:45:00,5,28135494,190934
OK,123,40,827,123,2014-10-01T13:50:00,9,28135931,190934
OK,106,46,827,106,2014-10-01T13:55:00,10,28136380,190934
OK,109,45,827,109,2014-10-01T14:00:00,9,28136820,190934
OK,110,45,827,110,2014-10-01T14:05:00,9,28137269,190934
OK,122,40,827,122,2014-10-01T14:10:00,13,28137704,190934
OK,162,30,827,162,2014-10-01T14:15:00,16,28138152,190934
OK,178,27,827,178,2014-10-01T14:20:00,11,28138581,190934
OK,157,31,827,157,2014-10-01T14:25:00,5,28139029,190934
OK,128,38,827,128,2014-10-01T14:30:00,7,28139441,190934
OK,103,48,827,103,2014-10-01T14:35:00,11,28139889,190934
OK,103,48,827,103,2014-10-01T14:40:00,10,28140332,190934
OK,107,46,827,107,2014-10-01T14:45:00,7,28140780,190934
OK,107,46,827,107,2014-10-01T14:50:00,13,28141208,190934
OK,99,50,827,99,2014-10-01T14:55:00,16,28141655,190934
OK,99,50,827,99,2014-10-01T15:00:00,9,28142085,190934
OK,97,51,827,97,2014-10-01T15:05:00,5,28142532,190934
OK,93,53,827,93,2014-10-01T15:10:00,11,28142961,190934
OK,97,51,827,97,2014-10-01T15:15:00,12,28143408,190934
OK,97,51,827,97,2014-10-01T15:20:00,8,28143856,190934
OK,99,50,827,99,2014-10-01T15:25:00,8,28144305,190934
OK,107,46,827,107,2014-10-01T15:30:00,9,28144730,190934
OK,103,48,827,103,2014-10-01T15:35:00,6,28145140,190934
OK,103,48,827,103,2014-10-01T15:40:00,7,28145589,190934
OK,110,45,827,110,2014-10-01T15:45:00,7,28146038,190934
OK,106,46,827,106,2014-10-01T15:50:00,9,28146487,190934
OK,94,52,827,94,2014-10-01T15:55:00,4,28146900,190934
OK,95,52,827,95,2014-10-01T16:00:00,2,28147339,190934
OK,86,57,827,86,2014-10-01T16:05:00,3,28147788,190934
OK,86,57,827,86,2014-10-01T16:10:00,5,28148191,190934
OK,98,50,827,98,2014-10-01T16:15:00,8,28148638,190934
OK,97,51,827,97,2014-10-01T16:20:00,9,28149079,190934
OK,91,54,827,91,2014-10-01T16:25:00,4,28149526,190934
OK,88,56,827,88,2014-10-01T16:30:00,4,28149954,190934
OK,76,65,827,76,2014-10-01T16:35:00,1,28150401,190934
OK,92,54,827,92,2014-10-01T16:40:00,3,28150821,190934
OK,95,52,827,95,2014-10-01T16:45:00,4,28151268,190934
OK,99,50,827,99,2014-10-01T16:50:00,2,28151717,190934
OK,93,53,827,93,2014-10-01T17:00:00,5,28152166,190934
OK,92,54,827,92,2014-10-01T17:05:00,3,28152612,190934
OK,103,48,827,103,2014-10-01T17:10:00,6,28153059,190934
OK,95,52,827,95,2014-10-01T17:15:00,6,28153508,190934
OK,95,52,827,95,2014-10-01T17:20:00,7,28153921,190934
OK,102,48,827,102,2014-10-01T17:25:00,5,28154367,190934
OK,106,46,827,106,2014-10-01T17:30:00,2,28154809,190934
OK,99,50,827,99,2014-10-01T17:35:00,2,28155257,190934
OK,99,50,827,99,2014-10-01T17:40:00,4,28155678,190934
OK,90,55,827,90,2014-10-01T17:45:00,4,28156124,190934
OK,90,55,827,90,2014-10-01T17:50:00,6,28156573,190934
OK,94,52,827,94,2014-10-01T17:55:00,5,28157011,190934
OK,107,46,827,107,2014-10-01T18:00:00,3,28157443,190934
OK,97,51,827,97,2014-10-01T18:05:00,3,28157889,190934
OK,91,54,827,91,2014-10-01T18:10:00,1,28158333,190934
OK,89,55,827,89,2014-10-01T18:15:00,3,28158780,190934
OK,89,55,827,89,2014-10-01T18:20:00,4,28159225,190934
OK,80,62,827,80,2014-10-01T18:25:00,1,28159561,190934
OK,79,63,827,79,2014-10-01T18:30:00,1,28160009,190934
OK,96,51,827,96,2014-10-01T18:35:00,5,28160458,190934
OK,96,51,827,96,2014-10-01T18:40:00,5,28160897,190934
OK,104,47,827,104,2014-10-01T18:45:00,2,28161345,190934
OK,91,54,827,91,2014-10-01T18:50:00,3,28161763,190934
OK,90,55,827,90,2014-10-01T19:00:00,2,28162211,190934
OK,87,57,827,87,2014-10-01T19:05:00,1,28163045,190934
OK,101,49,827,101,2014-10-01T19:10:00,2,28163492,190934
OK,101,49,827,101,2014-10-01T19:15:00,2,28163941,190934
OK,88,56,827,88,2014-10-01T19:20:00,3,28164374,190934
OK,97,51,827,97,2014-10-01T19:25:00,3,28164821,190934
OK,102,48,827,102,2014-10-01T19:30:00,1,28165248,190934
OK,95,52,827,95,2014-10-01T19:35:00,2,28165694,190934
OK,91,54,827,91,2014-10-01T19:40:00,2,28166135,190934
OK,119,41,827,119,2014-10-01T19:45:00,4,28166497,190934
OK,96,51,827,96,2014-10-01T19:50:00,5,28166946,190934
OK,93,53,827,93,2014-10-01T19:55:00,2,28167375,190934
OK,94,52,827,94,2014-10-01T20:00:00,3,28167809,190934
OK,86,57,827,86,2014-10-01T20:05:00,1,28168257,190934
OK,86,57,827,86,2014-10-01T20:10:00,0,28168702,190934
OK,93,53,827,93,2014-10-01T20:15:00,2,28169151,190934
OK,97,51,827,97,2014-10-01T20:20:00,1,28169599,190934
OK,97,51,827,97,2014-10-01T20:25:00,0,28170025,190934
OK,94,52,827,94,2014-10-01T20:30:00,3,28170470,190934
OK,99,50,827,99,2014-10-01T20:35:00,3,28170918,190934
OK,81,61,827,81,2014-10-01T20:40:00,2,28171355,190934
OK,84,59,827,84,2014-10-01T20:45:00,5,28171801,190934
OK,88,56,827,88,2014-10-01T20:50:00,4,28172249,190934
OK,108,46,827,108,2014-10-01T20:55:00,1,28172695,190934
OK,72,69,827,72,2014-10-01T21:00:00,1,28173141,190934
OK,77,64,827,77,2014-10-01T21:05:00,1,28173590,190934
OK,77,64,827,77,2014-10-01T21:10:00,1,28174031,190934
OK,103,48,827,103,2014-10-01T21:15:00,1,28174480,190934
OK,90,55,827,90,2014-10-01T21:20:00,3,28174906,190934
OK,89,55,827,89,2014-10-01T21:25:00,2,28175302,190934
OK,89,55,827,89,2014-10-01T21:30:00,0,28175751,190934
OK,100,49,827,100,2014-10-01T21:35:00,0,28176200,190934
OK,91,54,827,91,2014-10-01T21:40:00,1,28176649,190934
OK,91,54,827,91,2014-10-01T21:45:00,0,28177015,190934
OK,91,54,827,91,2014-10-01T21:50:00,0,28177445,190934
OK,91,54,827,91,2014-10-01T21:55:00,0,28177891,190934
OK,91,54,827,91,2014-10-01T22:00:00,0,28178340,190934
OK,91,54,827,91,2014-10-01T22:05:00,0,28178787,190934
OK,91,54,827,91,2014-10-01T22:10:00,0,28179223,190934
OK,103,48,827,103,2014-10-01T22:15:00,1,28179664,190934
OK,103,48,827,103,2014-10-01T22:20:00,0,28180111,190934
OK,82,60,827,82,2014-10-01T22:25:00,1,28180510,190934
OK,82,60,827,82,2014-10-01T22:30:00,0,28180958,190934
OK,82,60,827,82,2014-10-01T22:35:00,0,28181382,190934
OK,58,85,827,58,2014-10-01T22:40:00,1,28181830,190934
OK,58,85,827,58,2014-10-01T22:45:00,0,28182277,190934
OK,58,85,827,58,2014-10-01T22:50:00,0,28182726,190934
OK,58,85,827,58,2014-10-01T22:55:00,0,28183143,190934
OK,58,85,827,58,2014-10-01T23:00:00,0,28183576,190934
OK,58,85,827,58,2014-10-01T23:05:00,0,28184021,190934
OK,58,85,827,58,2014-10-01T23:10:00,0,28184470,190934
OK,58,85,827,58,2014-10-01T23:15:00,0,28184905,190934
OK,58,85,827,58,2014-10-01T23:20:00,0,28185353,190934
OK,58,85,827,58,2014-10-01T23:25:00,0,28185784,190934
OK,84,59,827,84,2014-10-01T23:30:00,1,28186176,190934
OK,84,59,827,84,2014-10-01T23:40:00,0,28187023,190934
OK,84,59,827,84,2014-10-01T23:45:00,0,28187465,190934
OK,84,59,827,84,2014-10-01T23:55:00,0,28188355,190934
OK,84,59,827,84,2014-10-02T00:00:00,0,28188791,190934
OK,84,59,827,84,2014-10-02T00:05:00,0,28189240,190934
OK,84,59,827,84,2014-10-02T00:10:00,0,28189664,190934
OK,84,59,827,84,2014-10-02T00:15:00,0,28190111,190934
OK,84,59,827,84,2014-10-02T00:20:00,0,28190466,190934
OK,84,59,827,84,2014-10-02T00:25:00,0,28190913,190934
OK,84,59,827,84,2014-10-02T00:30:00,0,28191362,190934
OK,84,59,827,84,2014-10-02T00:35:00,0,28191670,190934
OK,84,59,827,84,2014-10-02T00:40:00,0,28192117,190934
OK,84,59,827,84,2014-10-02T00:45:00,0,28192551,190934
OK,84,59,827,84,2014-10-02T00:50:00,0,28192994,190934
OK,84,59,827,84,2014-10-02T00:55:00,0,28193361,190934
OK,84,59,827,84,2014-10-02T01:05:00,0,28194259,190934
OK,84,59,827,84,2014-10-02T01:15:00,0,28194708,190934
OK,84,59,827,84,2014-10-02T01:20:00,0,28195393,190934
OK,84,59,827,84,2014-10-02T01:30:00,0,28195842,190934
OK,84,59,827,84,2014-10-02T01:35:00,0,28196575,190934
OK,84,59,827,84,2014-10-02T01:40:00,0,28197000,190934
OK,84,59,827,84,2014-10-02T01:45:00,0,28197447,190934
OK,84,59,827,84,2014-10-02T01:50:00,0,28197895,190934
OK,84,59,827,84,2014-10-02T01:55:00,0,28198343,190934
OK,84,59,827,84,2014-10-02T02:05:00,0,28198792,190934
OK,84,59,827,84,2014-10-02T02:10:00,0,28199606,190934
OK,84,59,827,84,2014-10-02T02:15:00,0,28200048,190934
OK,84,59,827,84,2014-10-02T02:20:00,0,28200491,190934
OK,84,59,827,84,2014-10-02T02:25:00,0,28200940,190934
OK,84,59,827,84,2014-10-02T02:30:00,0,28201371,190934
OK,84,59,827,84,2014-10-02T02:45:00,0,28202269,190934
OK,90,55,827,90,2014-10-02T02:50:00,1,28202711,190934
OK,90,55,827,90,2014-10-02T02:55:00,0,28203159,190934
OK,90,55,827,90,2014-10-02T03:00:00,0,28203594,190934
OK,90,55,827,90,2014-10-02T03:10:00,0,28204043,190934
OK,66,75,827,66,2014-10-02T03:25:00,1,28204492,190934
OK,66,75,827,66,2014-10-02T03:30:00,0,28204941,190934
OK,80,62,827,80,2014-10-02T03:35:00,1,28205371,190934
OK,80,62,827,80,2014-10-02T03:40:00,0,28205816,190934
OK,130,38,827,130,2014-10-02T03:45:00,2,28206199,190934
OK,184,27,827,184,2014-10-02T03:55:00,0,28207097,190934
OK,79,63,827,79,2014-10-02T04:00:00,1,28207519,190934
OK,79,63,827,79,2014-10-02T04:05:00,0,28207965,190934
OK,66,75,827,66,2014-10-02T04:10:00,1,28208395,190934
OK,66,75,827,66,2014-10-02T04:15:00,0,28208841,190934
OK,66,75,827,66,2014-10-02T04:20:00,0,28209280,190934
OK,66,75,827,66,2014-10-02T04:25:00,0,28209728,190934
OK,78,63,827,78,2014-10-02T04:30:00,2,28210152,190934
OK,78,63,827,78,2014-10-02T04:35:00,2,28210600,190934
OK,90,55,827,90,2014-10-02T04:40:00,2,28211028,190934
OK,94,52,827,94,2014-10-02T04:45:00,1,28211469,190934
OK,94,52,827,94,2014-10-02T04:50:00,0,28211847,190934
OK,88,56,827,88,2014-10-02T04:55:00,2,28212296,190934
OK,85,58,827,85,2014-10-02T05:00:00,1,28212725,190934
OK,99,50,827,99,2014-10-02T05:05:00,7,28213174,190934
OK,110,45,827,110,2014-10-02T05:10:00,1,28213613,190934
OK,97,51,827,97,2014-10-02T05:15:00,4,28214061,190934
OK,87,57,827,87,2014-10-02T05:20:00,0,28214477,190934
OK,101,49,827,101,2014-10-02T05:25:00,5,28214923,190934
OK,100,49,827,100,2014-10-02T05:30:00,2,28215342,190934
OK,103,48,827,103,2014-10-02T05:40:00,9,28215788,190934
OK,97,51,827,97,2014-10-02T05:45:00,5,28216567,190934
OK,94,52,827,94,2014-10-02T05:50:00,0,28217014,190934
OK,106,46,827,106,2014-10-02T05:55:00,9,28217463,190934
OK,103,48,827,103,2014-10-02T06:00:00,8,28217902,190934
OK,100,49,827,100,2014-10-02T06:05:00,7,28218351,190934
OK,93,53,827,93,2014-10-02T06:10:00,2,28218773,190934
OK,96,51,827,96,2014-10-02T06:15:00,4,28219220,190934
OK,95,52,827,95,2014-10-02T06:20:00,5,28219595,190934
OK,98,50,827,98,2014-10-02T06:25:00,5,28220042,190934
OK,102,48,827,102,2014-10-02T06:30:00,7,28220478,190934
OK,103,48,827,103,2014-10-02T06:35:00,6,28220925,190934
OK,98,50,827,98,2014-10-02T06:40:00,2,28221320,190934
OK,90,55,827,90,2014-10-02T06:45:00,4,28221592,190934
OK,97,51,827,97,2014-10-02T07:00:00,7,28222186,190934
OK,96,51,827,96,2014-10-02T07:05:00,6,28222635,190934
OK,100,49,827,100,2014-10-02T07:10:00,5,28223068,190934
OK,84,59,827,84,2014-10-02T07:15:00,3,28223502,190934
OK,101,49,827,101,2014-10-02T07:20:00,0,28223949,190934
OK,93,53,827,93,2014-10-02T07:25:00,2,28224304,190934
OK,99,50,827,99,2014-10-02T07:30:00,1,28224753,190934
OK,97,51,827,97,2014-10-02T07:35:00,8,28225202,190934
OK,102,48,827,102,2014-10-02T07:40:00,1,28225528,190934
OK,97,51,827,97,2014-10-02T07:50:00,7,28226414,190934
OK,97,51,827,97,2014-10-02T07:55:00,11,28226863,190934
OK,109,45,827,109,2014-10-02T08:00:00,5,28227281,190934
OK,93,53,827,93,2014-10-02T08:05:00,1,28227727,190934
OK,93,53,827,93,2014-10-02T08:10:00,1,28228088,190934
OK,97,51,827,97,2014-10-02T08:15:00,5,28228535,190934
OK,102,48,827,102,2014-10-02T08:20:00,2,28228947,190934
OK,88,56,827,88,2014-10-02T08:25:00,4,28229394,190934
OK,86,57,827,86,2014-10-02T08:30:00,0,28229747,190934
OK,87,57,827,87,2014-10-02T08:35:00,3,28230193,190934
OK,79,63,827,79,2014-10-02T08:40:00,1,28230568,190934
OK,79,63,827,79,2014-10-02T08:45:00,0,28231008,190934
OK,100,49,827,100,2014-10-02T08:50:00,6,28231432,190934
OK,87,57,827,87,2014-10-02T08:55:00,1,28231880,190934
OK,101,49,827,101,2014-10-02T09:00:00,7,28232224,190934
OK,96,51,827,96,2014-10-02T09:10:00,0,28232671,190934
OK,100,49,827,100,2014-10-02T09:15:00,2,28233120,190934
OK,94,52,827,94,2014-10-02T09:20:00,1,28233545,190934
OK,104,47,827,104,2014-10-02T09:25:00,7,28233993,190934
OK,122,40,827,122,2014-10-02T09:30:00,1,28234328,190934
OK,97,51,827,97,2014-10-02T09:35:00,3,28234775,190934
OK,97,51,827,97,2014-10-02T09:40:00,3,28235202,190934
OK,95,52,827,95,2014-10-02T09:45:00,8,28235651,190934
OK,96,51,827,96,2014-10-02T09:50:00,1,28236095,190934
OK,103,48,827,103,2014-10-02T09:55:00,6,28236541,190934
OK,116,42,827,116,2014-10-02T10:00:00,3,28236946,190934
OK,117,42,827,117,2014-10-02T10:05:00,0,28237392,190934
OK,87,57,827,87,2014-10-02T10:10:00,2,28237840,190934
OK,93,53,827,93,2014-10-02T10:15:00,5,28238288,190934
OK,102,48,827,102,2014-10-02T10:20:00,6,28238729,190934
OK,101,49,827,101,2014-10-02T10:25:00,3,28239177,190934
OK,100,49,827,100,2014-10-02T10:30:00,1,28239608,190934
OK,96,51,827,96,2014-10-02T10:35:00,5,28240056,190934
OK,99,50,827,99,2014-10-02T10:40:00,3,28240501,190934
OK,101,49,827,101,2014-10-02T10:45:00,10,28240949,190934
OK,108,46,827,108,2014-10-02T10:50:00,3,28241382,190934
OK,96,51,827,96,2014-10-02T10:55:00,8,28241829,190934
OK,98,50,827,98,2014-10-02T11:00:00,4,28242227,190934
OK,98,50,827,98,2014-10-02T11:05:00,0,28242674,190934
OK,95,52,827,95,2014-10-02T11:15:00,0,28243123,190934
OK,98,50,827,98,2014-10-02T11:20:00,9,28243887,190934
OK,98,50,827,98,2014-10-02T11:25:00,3,28244316,190934
OK,98,50,827,98,2014-10-02T11:30:00,0,28244764,190934
OK,96,51,827,96,2014-10-02T11:35:00,6,28245213,190934
OK,94,52,827,94,2014-10-02T11:40:00,2,28245621,190934
OK,94,52,827,94,2014-10-02T11:45:00,0,28246068,190934
OK,95,52,827,95,2014-10-02T11:50:00,7,28246505,190934
OK,99,50,827,99,2014-10-02T11:55:00,8,28246954,190934
OK,107,46,827,107,2014-10-02T12:00:00,8,28247400,190934
OK,120,41,827,120,2014-10-02T12:05:00,5,28247832,190934
OK,120,41,827,120,2014-10-02T12:10:00,0,28248279,190934
OK,108,46,827,108,2014-10-02T12:15:00,2,28248727,190934
OK,97,51,827,97,2014-10-02T12:20:00,0,28249155,190934
OK,96,51,827,96,2014-10-02T12:25:00,10,28249598,190934
OK,104,47,827,104,2014-10-02T12:30:00,3,28250017,190934
OK,101,49,827,101,2014-10-02T12:35:00,11,28250415,190934
OK,117,42,827,117,2014-10-02T12:45:00,5,28251195,190934
OK,124,40,827,124,2014-10-02T13:20:00,7,28251740,190934
OK,172,28,827,172,2014-10-02T13:30:00,4,28252324,190934
OK,191,26,827,191,2014-10-02T13:35:00,3,28252766,190934
OK,192,25,827,192,2014-10-02T13:40:00,0,28253183,190934
OK,130,38,827,130,2014-10-02T13:45:00,11,28253632,190934
OK,130,38,827,130,2014-10-02T13:50:00,9,28254038,190934
OK,115,43,827,115,2014-10-02T13:55:00,5,28254358,190934
OK,111,44,827,111,2014-10-02T14:10:00,9,28254935,190934
OK,148,33,827,148,2014-10-02T14:15:00,10,28255384,190934
OK,150,33,827,150,2014-10-02T14:20:00,7,28255812,190934
OK,145,34,827,145,2014-10-02T14:25:00,0,28256261,190934
OK,119,41,827,119,2014-10-02T14:30:00,13,28256689,190934
OK,96,51,827,96,2014-10-02T14:35:00,15,28257138,190934
OK,89,55,827,89,2014-10-02T14:40:00,9,28257579,190934
OK,99,50,827,99,2014-10-02T14:45:00,11,28258027,190934
OK,104,47,827,104,2014-10-02T14:50:00,11,28258460,190934
OK,107,46,827,107,2014-10-02T14:55:00,7,28258906,190934
OK,104,47,827,104,2014-10-02T15:00:00,5,28259355,190934
OK,100,49,827,100,2014-10-02T15:05:00,6,28259802,190934
OK,100,49,827,100,2014-10-02T15:10:00,6,28260235,190934
OK,101,49,827,101,2014-10-02T15:15:00,6,28260684,190934
OK,102,48,827,102,2014-10-02T15:20:00,4,28261124,190934
OK,96,51,827,96,2014-10-02T15:25:00,10,28261506,190934
OK,93,53,827,93,2014-10-02T15:30:00,5,28261936,190934
OK,105,47,827,105,2014-10-02T15:35:00,4,28262383,190934
OK,100,49,827,100,2014-10-02T15:40:00,0,28262829,190934
OK,95,52,827,95,2014-10-02T15:45:00,10,28263267,190934
OK,113,44,827,113,2014-10-02T15:50:00,2,28263708,190934
OK,133,37,827,133,2014-10-02T15:55:00,0,28264110,190934
OK,133,37,827,133,2014-10-02T16:00:00,0,28264559,190934
OK,104,47,827,104,2014-10-02T16:05:00,7,28264997,190934